This demonstration page uses our WeatherBlox Daily Observations layout. Learn more.

Left ArrowRight Arrow

Hourly Observations for January 21, 2022

Temp ( °F °C ) Dew Point ( °F °C ) Humidity (%) Winds ( mph kmh ) Pressure ( in mb ) Visibility ( mi km ) Precip ( " mm )
12:53 am 00:53 Mostly Cloudy 27 -2.8 4 -15.6 37 37 N 9 15 30.49 1032 10 16 0.00 0.00
1:53 am 01:53 Mostly Cloudy 27 -2.8 5 -15 39 39 N 7 11 30.48 1032 10 16 0.00 0.00
2:53 am 02:53 Mostly Cloudy 26 -3.3 5 -15 40 40 NNE 7 11 30.48 1032 10 16 0.00 0.00
3:53 am 03:53 Mostly Cloudy 25 -3.9 5 -15 42 42 N 9 15 30.47 1032 10 16 0.00 0.00
4:53 am 04:53 Partly Cloudy 23 -5 5 -15 46 46 NNE 5 7 30.47 1032 10 16 0.00 0.00
5:53 am 05:53 Partly Cloudy 23 -5 5 -15 46 46 N 5 7 30.46 1032 10 16 0.00 0.00
6:53 am 06:53 Mostly Clear 22 -5.6 5 -15 48 48 NNE 5 7 30.47 1032 10 16 0.00 0.00
7:53 am 07:53 Mostly Sunny 23 -5 6 -14.4 48 48 N 6 9 30.49 1033 10 16 0.00 0.00
8:53 am 08:53 Mostly Sunny 27 -2.8 7 -13.9 43 43 NNE 7 11 30.49 1033 10 16 0.00 0.00
9:53 am 09:53 Mostly Sunny 30 -1.1 8 -13.3 39 39 NE 7 11 30.50 1033 10 16 0.00 0.00
10:53 am 10:53 Sunny 31 -0.6 9 -12.8 40 40 E 5 7 30.50 1033 10 16 0.00 0.00
11:53 am 11:53 Sunny 35 1.7 10 -12.2 35 35 VRB 5 7 30.48 1032 10 16 0.00 0.00
12:53 pm 12:53 Sunny 39 3.9 10 -12.2 30 30 VRB 5 7 30.44 1031 10 16 0.00 0.00
1:53 pm 13:53 Sunny 41 5 10 -12.2 28 28 NNE 6 9 30.39 1029 10 16 0.00 0.00
2:53 pm 14:53 Sunny 43 6.1 10 -12.2 26 26 VRB 5 7 30.38 1029 10 16 0.00 0.00
3:53 pm 15:53 Sunny 44 6.7 10 -12.2 25 25 VRB 3 6 30.37 1028 10 16 0.00 0.00
4:53 pm 16:53 Sunny 43 6.1 11 -11.7 27 27 undefined N/A 30.36 1028 10 16 0.00 0.00
5:53 pm 17:53 Clear 41 5 11 -11.7 29 29 Calm 30.36 1028 10 16 0.00 0.00
5:58 pm 17:58 Mostly Clear 41 5 11 -11.7 29 29 E 3 6 30.38 1029 10 16 0.00 0.00
6:53 pm 18:53 Clear 39 3.9 12 -11.1 33 33 Calm 30.38 1029 10 16 0.00 0.00
7:53 pm 19:53 Clear 37 2.8 13 -10.6 37 37 E 5 7 30.39 1029 10 16 0.00 0.00
8:53 pm 20:53 Clear 37 2.8 12 -11.1 36 36 E 5 7 30.40 1030 10 16 0.00 0.00
9:53 pm 21:53 Clear 36 2.2 14 -10 40 40 E 3 6 30.41 1030 10 16 0.00 0.00
10:53 pm 22:53 Clear 35 1.7 15 -9.4 44 44 E 5 7 30.42 1030 10 16 0.00 0.00
11:53 pm 23:53 Clear 34 1.1 14 -10 44 44 E 5 7 30.43 1031 10 16 0.00 0.00

Powered by AerisWeather